Time,TemperatureF,DewpointF,PressureIn,WindDirection,WindDirectionDegrees,WindSpeedMPH,WindSpeedGustMPH,Humidity,HourlyPrecipIn,Conditions,Clouds,dailyrainin,SolarRadiationWatts/m^2,SoftwareType,DateUTC
2013-05-30 00:22:00,56.0,56.0,-100.00,SE,129,3.0,6.0,100,0.00,,,0.04,0.000000,,2013-05-30 10:22:00,
2013-05-30 00:32:00,56.0,56.0,-100.00,SE,129,3.0,6.0,100,0.00,,,0.04,0.000000,,2013-05-30 10:32:00,
2013-05-30 00:42:00,56.0,56.0,-100.00,SE,129,3.0,6.0,100,0.00,,,0.04,0.000000,,2013-05-30 10:42:00,
2013-05-30 00:52:00,56.0,56.0,-100.00,SE,129,3.0,6.0,100,0.00,,,0.04,0.000000,,2013-05-30 10:52:00,
2013-05-30 01:21:00,53.0,53.0,-100.00,SE,146,7.0,10.0,100,0.00,,,0.04,0.000000,,2013-05-30 11:21:00,
2013-05-30 01:32:00,53.0,53.0,-100.00,SE,146,7.0,10.0,100,0.00,,,0.04,0.000000,,2013-05-30 11:32:00,
2013-05-30 01:42:00,53.0,53.0,-100.00,SE,146,7.0,10.0,100,0.00,,,0.04,0.000000,,2013-05-30 11:42:00,
2013-05-30 01:52:00,53.0,53.0,-100.00,SE,146,7.0,10.0,100,0.00,,,0.04,0.000000,,2013-05-30 11:52:00,
2013-05-30 02:22:00,51.0,50.0,-100.00,ESE,114,4.0,8.0,98,0.00,,,0.04,0.000000,,2013-05-30 12:22:00,
2013-05-30 02:32:00,51.0,50.0,-100.00,ESE,114,4.0,8.0,98,0.00,,,0.04,0.000000,,2013-05-30 12:32:00,
2013-05-30 02:42:00,51.0,50.0,-100.00,ESE,114,4.0,8.0,98,0.00,,,0.04,0.000000,,2013-05-30 12:42:00,
2013-05-30 02:52:00,51.0,50.0,-100.00,ESE,114,4.0,8.0,98,0.00,,,0.04,0.000000,,2013-05-30 12:52:00,
2013-05-30 03:22:00,52.0,51.0,-100.00,ESE,107,4.0,6.0,98,0.00,,,0.04,0.000000,,2013-05-30 13:22:00,
2013-05-30 03:32:00,52.0,51.0,-100.00,ESE,107,4.0,6.0,98,0.00,,,0.04,0.000000,,2013-05-30 13:32:00,
2013-05-30 03:42:00,52.0,51.0,-100.00,ESE,107,4.0,6.0,98,0.00,,,0.04,0.000000,,2013-05-30 13:42:00,
2013-05-30 03:52:00,52.0,51.0,-100.00,ESE,107,4.0,6.0,98,0.00,,,0.04,0.000000,,2013-05-30 13:52:00,
2013-05-30 04:22:00,50.0,49.0,-100.00,SE,128,4.0,7.0,98,0.00,,,0.04,0.000000,,2013-05-30 14:22:00,
2013-05-30 04:32:00,50.0,49.0,-100.00,SE,128,4.0,7.0,98,0.00,,,0.04,0.000000,,2013-05-30 14:32:00,
2013-05-30 04:42:00,50.0,49.0,-100.00,SE,128,4.0,7.0,98,0.00,,,0.04,0.000000,,2013-05-30 14:42:00,
2013-05-30 04:51:00,50.0,49.0,-100.00,SE,128,4.0,7.0,98,0.00,,,0.04,0.000000,,2013-05-30 14:51:00,
2013-05-30 06:12:00,48.0,44.0,-100.00,ESE,110,6.0,9.0,87,-99.99,,,0.04,1.000000,,2013-05-30 16:12:00,
2013-05-30 06:22:00,48.0,44.0,-100.00,ESE,110,6.0,9.0,87,-99.99,,,0.04,1.000000,,2013-05-30 16:22:00,
2013-05-30 06:33:00,48.0,44.0,-100.00,ESE,110,6.0,9.0,87,-99.99,,,0.04,1.000000,,2013-05-30 16:33:00,
2013-05-30 06:42:00,48.0,44.0,-100.00,ESE,110,6.0,9.0,87,-99.99,,,0.04,1.000000,,2013-05-30 16:42:00,
2013-05-30 06:52:00,48.0,44.0,-100.00,ESE,110,6.0,9.0,87,-99.99,,,0.04,1.000000,,2013-05-30 16:52:00,
2013-05-30 07:22:00,59.0,51.0,-100.00,SE,128,4.0,8.0,74,0.00,,,0.04,140.000000,,2013-05-30 17:22:00,
2013-05-30 07:32:00,59.0,51.0,-100.00,SE,128,4.0,8.0,74,0.00,,,0.04,140.000000,,2013-05-30 17:32:00,
2013-05-30 07:42:00,59.0,51.0,-100.00,SE,128,4.0,8.0,74,0.00,,,0.04,140.000000,,2013-05-30 17:42:00,
2013-05-30 07:52:00,59.0,51.0,-100.00,SE,128,4.0,8.0,74,0.00,,,0.04,140.000000,,2013-05-30 17:52:00,
2013-05-30 08:11:00,68.0,50.0,-100.00,West,260,2.0,5.0,52,0.00,,,0.04,394.000000,,2013-05-30 18:11:00,
2013-05-30 08:21:00,68.0,50.0,-100.00,West,260,2.0,5.0,52,0.00,,,0.04,394.000000,,2013-05-30 18:21:00,
2013-05-30 08:32:00,68.0,50.0,-100.00,West,260,2.0,5.0,52,0.00,,,0.04,394.000000,,2013-05-30 18:32:00,
2013-05-30 08:42:00,68.0,50.0,-100.00,West,260,2.0,5.0,52,0.00,,,0.04,394.000000,,2013-05-30 18:42:00,
2013-05-30 08:51:00,68.0,50.0,-100.00,West,260,2.0,5.0,52,0.00,,,0.04,394.000000,,2013-05-30 18:51:00,
2013-05-30 09:11:00,72.0,43.0,-100.00,NNW,342,3.0,7.0,35,0.00,,,0.04,636.000000,,2013-05-30 19:11:00,
2013-05-30 09:22:00,72.0,43.0,-100.00,NNW,342,3.0,7.0,35,0.00,,,0.04,636.000000,,2013-05-30 19:22:00,
2013-05-30 09:32:00,72.0,43.0,-100.00,NNW,342,3.0,7.0,35,0.00,,,0.04,636.000000,,2013-05-30 19:32:00,
2013-05-30 09:42:00,72.0,43.0,-100.00,NNW,342,3.0,7.0,35,0.00,,,0.04,636.000000,,2013-05-30 19:42:00,
2013-05-30 09:52:00,72.0,43.0,-100.00,NNW,342,3.0,7.0,35,0.00,,,0.04,636.000000,,2013-05-30 19:52:00,
2013-05-30 10:22:00,71.0,56.0,-100.00,NNW,339,7.0,14.0,59,0.00,,,0.04,836.000000,,2013-05-30 20:22:00,
2013-05-30 10:33:00,71.0,56.0,-100.00,NNW,339,7.0,14.0,59,0.00,,,0.04,836.000000,,2013-05-30 20:33:00,
2013-05-30 10:42:00,71.0,56.0,-100.00,NNW,339,7.0,14.0,59,0.00,,,0.04,836.000000,,2013-05-30 20:42:00,
2013-05-30 10:52:00,71.0,56.0,-100.00,NNW,339,7.0,14.0,59,0.00,,,0.04,836.000000,,2013-05-30 20:52:00,
2013-05-30 11:11:00,71.0,55.0,-100.00,NNW,343,7.0,14.0,58,0.00,,,0.04,974.000000,,2013-05-30 21:11:00,
2013-05-30 11:22:00,71.0,55.0,-100.00,NNW,343,7.0,14.0,58,0.00,,,0.04,974.000000,,2013-05-30 21:22:00,
2013-05-30 11:33:00,71.0,55.0,-100.00,NNW,343,7.0,14.0,58,0.00,,,0.04,974.000000,,2013-05-30 21:33:00,
2013-05-30 11:42:00,71.0,55.0,-100.00,NNW,343,7.0,14.0,58,0.00,,,0.04,974.000000,,2013-05-30 21:42:00,
2013-05-30 11:53:00,71.0,55.0,-100.00,NNW,343,7.0,14.0,58,0.00,,,0.04,974.000000,,2013-05-30 21:53:00,
2013-05-30 12:12:00,71.0,59.0,-100.00,North,2,8.0,17.0,65,0.00,,,0.04,1007.000000,,2013-05-30 22:12:00,
2013-05-30 12:22:00,71.0,59.0,-100.00,North,2,8.0,17.0,65,0.00,,,0.04,1007.000000,,2013-05-30 22:22:00,
2013-05-30 12:33:00,71.0,59.0,-100.00,North,2,8.0,17.0,65,0.00,,,0.04,1007.000000,,2013-05-30 22:33:00,
2013-05-30 12:42:00,71.0,59.0,-100.00,North,2,8.0,17.0,65,0.00,,,0.04,1007.000000,,2013-05-30 22:42:00,
2013-05-30 12:52:00,71.0,59.0,-100.00,North,2,8.0,17.0,65,0.00,,,0.04,1007.000000,,2013-05-30 22:52:00,
2013-05-30 13:22:00,70.0,58.0,-100.00,North,358,7.0,18.0,65,0.00,,,0.04,1021.000000,,2013-05-30 23:22:00,
2013-05-30 13:31:00,70.0,58.0,-100.00,North,358,7.0,18.0,65,0.00,,,0.04,1021.000000,,2013-05-30 23:31:00,
2013-05-30 13:41:00,70.0,58.0,-100.00,North,358,7.0,18.0,65,0.00,,,0.04,1021.000000,,2013-05-30 23:41:00,
2013-05-30 13:52:00,70.0,58.0,-100.00,North,358,7.0,18.0,65,0.00,,,0.04,1021.000000,,2013-05-30 23:52:00,
2013-05-30 14:21:00,72.0,59.0,-100.00,North,354,7.0,16.0,64,0.00,,,0.04,838.000000,,2013-05-31 00:21:00,
2013-05-30 14:32:00,72.0,59.0,-100.00,North,354,7.0,16.0,64,0.00,,,0.04,838.000000,,2013-05-31 00:32:00,
2013-05-30 14:42:00,72.0,59.0,-100.00,North,354,7.0,16.0,64,0.00,,,0.04,838.000000,,2013-05-31 00:42:00,
2013-05-30 14:52:00,72.0,59.0,-100.00,North,354,7.0,16.0,64,0.00,,,0.04,838.000000,,2013-05-31 00:52:00,
2013-05-30 15:21:00,70.0,58.0,-100.00,North,349,8.0,18.0,65,0.00,,,0.01,780.000000,,2013-05-31 01:21:00,
2013-05-30 15:32:00,70.0,58.0,-100.00,North,349,8.0,18.0,65,0.00,,,0.01,780.000000,,2013-05-31 01:32:00,
2013-05-30 15:42:00,70.0,58.0,-100.00,North,349,8.0,18.0,65,0.00,,,0.01,780.000000,,2013-05-31 01:42:00,
2013-05-30 15:51:00,70.0,58.0,-100.00,North,349,8.0,18.0,65,0.00,,,0.01,780.000000,,2013-05-31 01:51:00,
2013-05-30 16:11:00,69.0,58.0,-100.00,North,351,7.0,16.0,69,0.00,,,0.00,504.000000,,2013-05-31 02:11:00,
2013-05-30 16:21:00,69.0,58.0,-100.00,North,351,7.0,16.0,69,0.00,,,0.00,504.000000,,2013-05-31 02:21:00,
2013-05-30 16:32:00,69.0,58.0,-100.00,North,351,7.0,16.0,69,0.00,,,0.00,504.000000,,2013-05-31 02:32:00,
2013-05-30 16:41:00,69.0,58.0,-100.00,North,351,7.0,16.0,69,0.00,,,0.00,504.000000,,2013-05-31 02:41:00,
2013-05-30 16:51:00,69.0,58.0,-100.00,North,351,7.0,16.0,69,0.00,,,0.00,504.000000,,2013-05-31 02:51:00,
2013-05-30 17:21:00,66.0,59.0,-100.00,North,2,6.0,17.0,78,0.00,,,-99.99,232.000000,,2013-05-31 03:21:00,
2013-05-30 17:33:00,66.0,59.0,-100.00,North,2,6.0,17.0,78,0.00,,,-99.99,232.000000,,2013-05-31 03:33:00,
2013-05-30 17:43:00,66.0,59.0,-100.00,North,2,6.0,17.0,78,0.00,,,-99.99,232.000000,,2013-05-31 03:43:00,
2013-05-30 17:53:00,66.0,59.0,-100.00,North,2,6.0,17.0,78,0.00,,,-99.99,232.000000,,2013-05-31 03:53:00,
2013-05-30 18:12:00,64.0,58.0,-100.00,North,356,6.0,11.0,80,0.00,,,0.00,147.000000,,2013-05-31 04:12:00,
2013-05-30 18:22:00,64.0,58.0,-100.00,North,356,6.0,11.0,80,0.00,,,0.00,147.000000,,2013-05-31 04:22:00,
2013-05-30 18:32:00,64.0,58.0,-100.00,North,356,6.0,11.0,80,0.00,,,0.00,147.000000,,2013-05-31 04:32:00,
2013-05-30 18:42:00,64.0,58.0,-100.00,North,356,6.0,11.0,80,0.00,,,0.00,147.000000,,2013-05-31 04:42:00,
2013-05-30 18:52:00,64.0,58.0,-100.00,North,356,6.0,11.0,80,0.00,,,0.00,147.000000,,2013-05-31 04:52:00,
2013-05-30 19:22:00,63.0,60.0,-100.00,NNW,343,4.0,9.0,91,0.00,,,0.00,31.000000,,2013-05-31 05:22:00,
2013-05-30 19:31:00,63.0,60.0,-100.00,NNW,343,4.0,9.0,91,0.00,,,0.00,31.000000,,2013-05-31 05:31:00,
2013-05-30 19:42:00,63.0,60.0,-100.00,NNW,343,4.0,9.0,91,0.00,,,0.00,31.000000,,2013-05-31 05:42:00,
2013-05-30 19:51:00,63.0,60.0,-100.00,NNW,343,4.0,9.0,91,0.00,,,0.00,31.000000,,2013-05-31 05:51:00,
2013-05-30 20:12:00,59.0,58.0,-100.00,SSW,197,1.0,6.0,96,0.00,,,0.00,0.000000,,2013-05-31 06:12:00,
2013-05-30 20:21:00,59.0,58.0,-100.00,SSW,197,1.0,6.0,96,0.00,,,0.00,0.000000,,2013-05-31 06:21:00,
2013-05-30 20:31:00,59.0,58.0,-100.00,SSW,197,1.0,6.0,96,0.00,,,0.00,0.000000,,2013-05-31 06:31:00,
2013-05-30 20:41:00,59.0,58.0,-100.00,SSW,197,1.0,6.0,96,0.00,,,0.00,0.000000,,2013-05-31 06:41:00,
2013-05-30 20:51:00,59.0,58.0,-100.00,SSW,197,1.0,6.0,96,0.00,,,0.00,0.000000,,2013-05-31 06:51:00,
2013-05-30 21:21:00,55.0,54.0,-100.00,SSE,149,3.0,5.0,97,0.00,,,0.00,0.000000,,2013-05-31 07:21:00,
2013-05-30 21:32:00,55.0,54.0,-100.00,SSE,149,3.0,5.0,97,0.00,,,0.00,0.000000,,2013-05-31 07:32:00,
2013-05-30 21:41:00,55.0,54.0,-100.00,SSE,149,3.0,5.0,97,0.00,,,0.00,0.000000,,2013-05-31 07:41:00,
2013-05-30 21:52:00,55.0,54.0,-100.00,SSE,149,3.0,5.0,97,0.00,,,0.00,0.000000,,2013-05-31 07:52:00,
2013-05-30 22:21:00,60.0,60.0,-100.00,SSW,213,2.0,11.0,100,0.00,,,0.00,0.000000,,2013-05-31 08:21:00,
2013-05-30 22:31:00,60.0,60.0,-100.00,SSW,213,2.0,11.0,100,0.00,,,0.00,0.000000,,2013-05-31 08:31:00,
2013-05-30 22:42:00,60.0,60.0,-100.00,SSW,213,2.0,11.0,100,0.00,,,0.00,0.000000,,2013-05-31 08:42:00,
2013-05-30 22:51:00,60.0,60.0,-100.00,SSW,213,2.0,11.0,100,0.00,,,0.00,0.000000,,2013-05-31 08:51:00,
2013-05-30 23:21:00,59.0,59.0,-100.00,South,188,3.0,6.0,100,0.00,,,0.00,0.000000,,2013-05-31 09:21:00,
2013-05-30 23:32:00,59.0,59.0,-100.00,South,188,3.0,6.0,100,0.00,,,0.00,0.000000,,2013-05-31 09:32:00,
2013-05-30 23:43:00,59.0,59.0,-100.00,South,188,3.0,6.0,100,0.00,,,0.00,0.000000,,2013-05-31 09:43:00,
2013-05-30 23:53:00,59.0,59.0,-100.00,South,188,3.0,6.0,100,0.00,,,0.00,0.000000,,2013-05-31 09:53:00,